STARLINK-5627, 55364

Orbit data source: Space-Track

STARLINK-5627, 55364 is a payload satellite owned by SpaceX/Seattle (US) in LEO that was launched on Thu, 26 Jan 2023 UTC via an FALCON 9 launch vehicle from the Air Force Eastern Test Range (AFETR). Payload-class satellites include a variety of spacecraft equipped with specific instruments for various scientific and technological missions. These include communications satellites like Starlink; space stations such as the ISS; scientific satellites like the Hubble; Earth observation satellites from companies like Planet Labs, Umbra, and HawkEye 360; GPS; miniature CubeSats for education and research; and military/defense satellites.

Loading next visibility...
Identifier
55364, 2023-013AK
Orbit
LEO
Country
Flag of USUS
Related business
Manufacturer
SpaceX/Seattle
Mission
Operational Commercial Communications
Bus & Motor
STARLINK, Unknown motor
Mass
305 kg wet, ~290 kg dry
Launch date (UTC)
2023-01-26 (3 years ago)
Launch vehicle
FALCON 9
Launch site
Air Force Eastern Test Range (AFETR)
Object type
Payload
Rocket body
Debris
Shape & HBR
Box + 1 Pan, 10.1 m
Radar Cross Section
13.562 m², Large (>1 m²)

Expand to show TLE details & history
Last TLE update: 3 days ago

TLE from 3 days ago
0 STARLINK-5627
1 55364U 23013AK  26170.82283903 -.00000200  00000-0  22473-5 0  9999
2 55364  43.0050  89.9973 0001386 266.4371  93.6322 15.27576092187251
Epoch: 2026-06-19T19:44Z
TLE epoch observation values (Epoch: 2026-06-19T19:44:53.292Z)
Latitude
-0.00002°
Longitude
-114.27107°
Altitude
482.897 km
Speed
7.626 km/s
True Right ascension
05h 59m 59s
True Declination
0° 00' 00"
Sunlit
Object was in daylight at epoch
Visualization orbit readout
Latitude
Unknown
Longitude
Unknown
Altitude
Unknown
Speed
Unknown
Apparent Right ascension
Unknown
Apparent Declination
Unknown
Sunlit
N/A
Visualization observer readout
Local Sidereal Time
21:42:56
Azimuth
Unknown
Elevation
Unknown
Doppler factor
Unknown
Orbital elements
Apogee altitude
485.956 km
Perigee altitude
484.054 km
Semi-major axis
6,863.142 km
Eccentricity
0.00014
Inclination
43.005°
RAAN
89.9973°
Arg. of periapsis
266.4371°
True anomaly
93.64805°
Mean anomaly
93.6322°
Eccentric anomaly
93.64013°
Mean motion
3.81732 °/min
Orbital period
94.31 mins
BSTAR
0.0000022473
Loading maneuver chart data...
Computing Atmospheric mass density...
Loading historical data...
Loading historical data...
Loading historical data...
Loading historical data...
Loading historical data...
Loading historical data...
Loading historical data...

Documentation

Showing up to 5 results
|